Find Suisen

NORAD ID: 47936 Int'l Des: 2021-022 Owner: AXEL/FUKUI Country: J operational
LEOCIRCULARRETROGRADESSO

Live Position

Loading 3D Globe...

About Suisen

Description loading...

Upcoming Passes

Passes for default location (London). Set your location on the main map for personalized predictions.

Altitude History

Loading altitude history...

Two-Line Element Set

1 47936U 21022E 26106.97443567 .00001003 00000-0 87443-4 0 9990
2 47936 97.5502 352.3758 0014086 145.8500 214.3632 14.98953106276736
Epoch: Apr 16, 2026 • Age: 10 hours

Current Status

Altitude 585.5 km
Velocity 7.56 km/s
Sub-Earth Point -15.09°S, 15.32°E
Launch Date Mar 22, 2021
Age 5 years
Type other

Technical Details

Classification Payload
Mass 80.00 kg
Dry Mass 80.00 kg
Total Mass 80.00 kg
Length 0.50 m
Diameter 0.50 m
Span 0.50 m
Shape Box
Manufacturer AXEL
Bus Type GRUS
Phase Status In Orbit
Owner/State AXEL/FUKUI/J

Most Searched